sat.trackr.live / text

‹ back to catalog

STARLINK-11367 [DTC]

NORAD 62097 · 2024-220K

PAYLOAD ACTIVE UNKNOWN

§ Identity

Operator
Country
US
Launch date
2024-11-25
Launch site
AFETR
Launch vehicle
Mass (kg)
RCS (m²)

Purposes: comms

External: N2YO · Heavens-Above · Gunter

§ Orbital elements

Epoch: 2026-05-24T20:15:55.842912Z

Period
91.67 min
Inclination
43.0001°
Eccentricity
0.0001401
Mean motion
15.70898639 rev/d
Perigee alt
355.4 km
Apogee alt
357.3 km
Semi-major
6,734.5 km
B*
1.7426e-3
RAAN
303.7425°
Arg perigee
283.2186°
Mean anomaly
76.8525°
Rev number
8,703

§ Raw data

STARLINK-11367 [DTC]1 62097U 24220K   26144.84439633  .00230011  00000+0  17426-2 0  99992 62097  43.0001 303.7425 0001401 283.2186  76.8525 15.70898639 87031

JSON: /api/v1/satellites/62097 · /tle

For live sub-satellite position, see the globe view (requires WebGL).

§ Visibility from observer

Set your observer location to see the next 7 days of passes ≥ 10°. The values pass through the URL so the page stays shareable.

No JS? Fill the form by hand. The geolocation button needs JavaScript.